Location: Worth Mountain WMA
(34.9569°N, 81.4819°W)
Time: 19:26:39
(UTC-04:00)

Amateur Radio Satellites - All Passes

Search period start: 03 September 2015 18:56
Search period end: 04 September 2015 18:56
Location: Worth Mountain WMA, 34.9569°N, 81.4819°W

Satellite Date Start Highest point End Downlink Frequencies (MHz)
Time Altitude Azimuth
Cubesat XI-IV 03 Sep 19:19:00 19:24:16 62° 259° (WSW) 19:29:33 437.490
BRITE-PL 03 Sep 19:40:05 19:43:53 30° 71° (ENE) 19:48:01 437.365/2234.400
HO-68 03 Sep 19:46:49 19:51:39 21° 62° (ENE) 19:56:46 435.675
STRAND 1 03 Sep 19:48:36 19:52:58 29° 96° (E) 19:57:24 437.568
DOVE 4 03 Sep 19:52:32 19:54:58 15° 66° (ENE) 19:57:42 437.250
GOMX 1 03 Sep 19:53:06 19:56:43 24° 69° (ENE) 20:00:39 467.674
AIST 1 03 Sep 19:56:24 20:00:45 77° 265° (W) 20:05:06
CUTE-I 03 Sep 20:04:21 20:08:34 23° 266° (W) 20:12:39 437.470
CINEMA 3 03 Sep 20:16:23 20:17:20 11° 65° (ENE) 20:18:36 145.822/145.860
CUBESAT XI-V 03 Sep 20:21:10 20:25:09 28° 288° (WNW) 20:29:05 437.345
O/OREOS (USA 219) 03 Sep 20:38:28 20:39:56 11° 305° (NW) 20:41:09 437.305
Cosmos 2491 03 Sep 20:45:57 20:54:44 75° 82° (E) 21:03:32 435.465 / 435.565
YUBILEINY 03 Sep 20:48:24 20:56:09 38° 88° (E) 21:04:08 435.215
CUTE 1.7 + AOD 2 03 Sep 20:56:45 21:00:50 46° 75° (ENE) 21:04:58 437.475
PRISM 03 Sep 21:00:09 21:04:13 61° 285° (WNW) 21:08:17 437.425
CANX-2 03 Sep 21:11:04 21:15:21 81° 77° (ENE) 21:19:39 2200.000
RS-15 03 Sep 21:11:23 21:15:39 12° 357° (N) 21:19:55 29.354- 29.394
CUBEBUG 2 03 Sep 21:19:07 21:22:41 23° 70° (ENE) 21:26:26 437.445
BRITE-PL 03 Sep 21:19:11 21:22:32 20° 269° (W) 21:25:56 437.365/2234.400
UWE-3 03 Sep 21:19:52 21:22:52 18° 69° (ENE) 21:26:03 435.000/436.395/437.385
SEEDS 03 Sep 21:26:42 21:30:57 86° 78° (ENE) 21:35:13 437.485
DOVE 4 03 Sep 21:27:45 21:32:14 52° 262° (W) 21:37:02 437.250
STRAND 1 03 Sep 21:27:46 21:32:07 28° 290° (WNW) 21:36:22 437.568
GOMX 1 03 Sep 21:30:50 21:34:45 28° 266° (W) 21:38:50 467.674
HO-68 03 Sep 21:31:40 21:38:48 69° 257° (WSW) 21:45:58 435.675
COMPASS 1 03 Sep 21:43:11 21:47:23 78° 259° (WSW) 21:51:36 437.405
CINEMA 3 03 Sep 21:49:12 21:53:54 73° 259° (W) 21:58:49 145.822/145.860
Oscar 11 03 Sep 21:50:16 21:54:21 42° 74° (ENE) 21:58:29 145.826/435.025
AAUSAT CUBESAT 2 03 Sep 21:50:29 21:54:40 76° 260° (W) 21:58:51 437.432
DELFI C3 03 Sep 21:52:06 21:55:27 26° 72° (ENE) 21:58:52 145.870
Cosmos 2504 03 Sep 22:33:45 22:39:32 23° 83° (E) 22:45:52 435.465 / 435.565
CUTE 1.7 + AOD 2 03 Sep 22:35:17 22:37:03 12° 270° (W) 22:38:34 437.475
ZACube-1 03 Sep 22:40:04 22:44:36 79° 257° (WSW) 22:49:14 437.345
FUNcube-1 03 Sep 22:43:55 22:48:27 73° 258° (WSW) 22:53:04 145.935
YUBILEINY 03 Sep 22:44:44 22:52:56 41° 285° (WNW) 23:01:04 435.215
Cosmos 2491 03 Sep 22:44:55 22:50:49 19° 277° (W) 22:56:12 435.465 / 435.565
BEESAT 3 03 Sep 22:46:00 22:46:29 10° 45° (NE) 22:47:10 437.485
UNISAT 6 03 Sep 22:48:42 22:50:16 12° 89° (E) 22:52:05 437.425
VELOX 1 03 Sep 22:51:54 22:54:44 18° 69° (ENE) 22:57:44 145.980
UWE-3 03 Sep 22:54:45 22:59:05 40° 263° (W) 23:03:28 435.000/436.395/437.385
CUBEBUG 2 03 Sep 22:55:03 22:59:12 31° 265° (W) 23:03:22 437.445
HUMSAT D 03 Sep 22:57:51 23:02:06 61° 76° (ENE) 23:06:24 437.325/437.525
BEESAT 2 03 Sep 23:02:16 23:03:39 12° 46° (NE) 23:05:11 435.950
TIGRISAT 03 Sep 23:14:13 23:17:47 23° 94° (E) 23:21:22 435.000
DX 1 03 Sep 23:23:42 23:27:59 69° 76° (ENE) 23:32:19 434.975-435.025
RS-15 03 Sep 23:25:56 23:34:31 23° 33° (NNE) 23:43:45 29.354- 29.394
DELFI C3 03 Sep 23:27:32 23:30:31 19° 266° (W) 23:33:22 145.870
Oscar 11 03 Sep 23:28:28 23:30:47 14° 269° (W) 23:32:53 145.826/435.025
UKube-1 03 Sep 23:30:57 23:35:15 75° 76° (ENE) 23:39:34 .
ANTELSAT 03 Sep 23:32:15 23:36:29 40° 98° (E) 23:40:37 437.575/2403.000
NANOSAT C BR1 03 Sep 23:36:00 23:38:00 13° 91° (E) 23:40:12 145.865
QB50P2 03 Sep 23:37:24 23:39:45 15° 92° (E) 23:42:18 145.880/145.840
50 SAT 03 Sep 23:41:03 23:45:00 82° 77° (ENE) 23:48:58 437.505
CUBEBUG 1 03 Sep 23:49:40 23:53:47 47° 74° (ENE) 23:57:58 437.445
QB50P1 03 Sep 23:50:09 23:53:19 21° 94° (E) 23:56:35 145.935-145.965
CUSAT 1 03 Sep 23:54:23 23:57:54 32° 89° (E) 00:02:30 437.405
ESTCUBE 1 03 Sep 23:58:31 00:02:59 77° 76° (ENE) 00:07:28 437.505/2401.250
AISAT 03 Sep 23:59:21 00:03:44 72° 258° (WSW) 00:08:11 437.250
AIST 2 04 Sep 00:02:16 00:02:43 10° 44° (NE) 00:03:22 435.215
SO-50 04 Sep 00:11:17 00:15:23 31° 112° (ESE) 00:19:40 436.795
AUBIESAT-1 04 Sep 00:18:31 00:22:15 66° 105° (ESE) 00:25:42 437.475
BEESAT 3 04 Sep 00:20:56 00:24:56 71° 243° (WSW) 00:28:52 437.485
Cosmos 2504 04 Sep 00:22:58 00:31:02 65° 280° (W) 00:39:33 435.465 / 435.565
UNISAT 6 04 Sep 00:23:03 00:27:26 50° 286° (WNW) 00:31:41 437.425
TISAT 1 04 Sep 00:23:53 00:26:41 18° 70° (ENE) 00:29:38 437.305
VELOX 1 04 Sep 00:27:00 00:31:02 35° 262° (W) 00:35:05 145.980
M-CUBED/EXP-1 PRIME 04 Sep 00:27:14 00:31:02 73° 289° (WNW) 00:34:31 437.505
BEESAT 2 04 Sep 00:38:08 00:42:07 61° 244° (WSW) 00:46:02 435.950
BUGSAT 1 04 Sep 00:43:35 00:47:46 52° 100° (E) 00:51:56 437.445
DANDE 04 Sep 00:47:08 00:50:35 78° 97° (E) 00:55:16 436.750
TIGRISAT 04 Sep 00:50:42 00:54:30 26° 289° (WNW) 00:58:07 435.000
DUCHIFAT 1 04 Sep 00:51:00 00:55:18 74° 284° (WNW) 00:59:32 145.980
POLYITAN 1 04 Sep 00:52:30 00:56:47 66° 284° (WNW) 01:01:01 437.675
POPSAT HIP 1 04 Sep 00:53:42 00:57:59 66° 284° (WNW) 01:02:12 437.405
SPROUT 04 Sep 01:07:36 01:11:53 72° 259° (W) 01:16:11 437.525
NANOSAT C BR1 04 Sep 01:10:00 01:14:04 42° 286° (WNW) 01:18:04 145.865
ANTELSAT 04 Sep 01:10:06 01:12:56 16° 292° (WNW) 01:15:33 437.575/2403.000
QB50P2 04 Sep 01:11:50 01:15:50 38° 287° (WNW) 01:19:46 145.880/145.840
BEESAT 04 Sep 01:13:25 01:14:47 11° 65° (ENE) 01:16:26 436.000
QB50P1 04 Sep 01:25:30 01:29:11 27° 288° (WNW) 01:32:46 145.935-145.965
CUBEBUG 1 04 Sep 01:28:39 01:30:28 12° 270° (W) 01:32:02 437.445
VERMONT LUNAR 04 Sep 01:29:27 01:31:37 18° 146° (SE) 01:33:49 437.305
SWISSCUBE 04 Sep 01:37:23 01:41:03 23° 70° (ENE) 01:44:51 437.505
RS-15 04 Sep 01:37:37 01:49:33 75° 58° (ENE) 02:01:51 29.354- 29.394
AIST 2 04 Sep 01:37:43 01:41:52 77° 243° (WSW) 01:45:57 435.215
CUSAT 1 04 Sep 01:37:50 01:40:49 17° 296° (WNW) 01:44:10 437.405
GONETS M04 04 Sep 01:40:09 01:44:22 15° 81° (E) 01:49:15
PCSat 04 Sep 01:45:31 01:50:55 84° 116° (ESE) 01:56:22 145.827
SO-50 04 Sep 01:51:46 01:55:55 28° 309° (NW) 02:00:07 436.795
TISAT 1 04 Sep 01:58:28 02:02:14 31° 263° (W) 02:06:00 437.305
ITUPSAT 1 04 Sep 02:16:34 02:21:12 55° 74° (ENE) 02:25:53 437.325
BUGSAT 1 04 Sep 02:21:11 02:22:48 12° 293° (WNW) 02:24:11 437.445
Oscar 19 04 Sep 02:46:37 02:51:49 68° 101° (E) 02:56:58 437.125/150
BEESAT 04 Sep 02:47:24 02:52:08 67° 259° (W) 02:56:53 436.000
JAS-2 04 Sep 02:58:08 03:00:25 12° 84° (E) 03:03:05 435.910
KKS-1 04 Sep 03:02:49 03:06:26 25° 71° (ENE) 03:10:10 437.445
VERMONT LUNAR 04 Sep 03:04:50 03:07:49 68° 339° (NNW) 03:10:48 437.305
SWISSCUBE 04 Sep 03:14:33 03:18:47 31° 264° (W) 03:22:57 437.505
PHONESAT 2.4 04 Sep 03:19:22 03:20:54 13° 143° (SE) 03:22:31 2401.200-2431.200
GONETS M04 04 Sep 03:31:33 03:40:14 86° 275° (W) 03:49:01
PCSat 04 Sep 03:32:20 03:35:07 14° 314° (NW) 03:37:39 145.827
RS-15 04 Sep 03:51:34 04:01:16 28° 255° (WSW) 04:10:32 29.354- 29.394
ITAMSAT 1 04 Sep 03:53:11 03:58:23 72° 103° (ESE) 04:03:34 435.822/435.867
Cosmos 2499 04 Sep 03:53:18 04:00:37 35° 87° (E) 04:08:25 435.465 / 435.565
Gurwin Techsat 1B 04 Sep 03:55:48 04:01:09 86° 285° (WNW) 04:06:28 435.225
ITUPSAT 1 04 Sep 03:57:18 03:59:30 13° 270° (W) 04:01:24 437.325
AO-7 04 Sep 04:09:10 04:15:00 22° 93° (E) 04:21:14 29.400- 29.500
STARS 04 Sep 04:10:40 04:15:05 89° 65° (ENE) 04:19:32 437.465
Oscar 19 04 Sep 04:28:13 04:30:39 13° 295° (WNW) 04:32:47 437.125/150
KKS-1 04 Sep 04:39:20 04:43:01 24° 265° (W) 04:46:38 437.445
JAS-2 04 Sep 04:39:54 04:46:39 79° 285° (WNW) 04:52:33 435.910
VERMONT LUNAR 04 Sep 04:41:52 04:44:30 27° 355° (N) 04:47:07 437.305
PHONESAT 2.4 04 Sep 04:55:00 04:58:25 75° 155° (SSE) 05:01:50 2401.200-2431.200
O/OREOS (USA 219) 04 Sep 05:08:42 05:13:19 73° 69° (ENE) 05:17:52 437.305
MOZHAYETS 4 04 Sep 05:16:27 05:21:04 76° 258° (WSW) 05:25:40
GONETS M04 04 Sep 05:33:51 05:38:38 15° 298° (WNW) 05:42:47
ITAMSAT 1 04 Sep 05:35:10 05:37:21 12° 296° (WNW) 05:39:15 435.822/435.867
HORYU 2 04 Sep 05:44:52 05:49:16 60° 285° (WNW) 05:53:36 437.375
CUBESAT XI-V 04 Sep 05:45:11 05:47:58 17° 69° (ENE) 05:50:55 437.345
Cosmos 2499 04 Sep 05:45:29 05:53:35 46° 284° (WNW) 06:01:58 435.465 / 435.565
AO-7 04 Sep 06:00:17 06:08:31 69° 290° (WNW) 06:16:42 29.400- 29.500
VERMONT LUNAR 04 Sep 06:18:33 06:21:19 35° 12° (NNE) 06:24:04 437.305
JAS-2 04 Sep 06:28:34 06:30:33 11° 302° (WNW) 06:32:02 435.910
PHONESAT 2.4 04 Sep 06:33:17 06:36:28 35° 351° (N) 06:39:39 2401.200-2431.200
CUTE-I 04 Sep 06:44:39 06:48:18 19° 93° (E) 06:52:10 437.470
STRAND 1 04 Sep 07:01:25 07:05:46 30° 70° (ENE) 07:10:13 437.568
YUBILEINY 04 Sep 07:04:25 07:08:38 15° 62° (ENE) 07:13:30 435.215
CUBESAT XI-V 04 Sep 07:20:47 07:25:08 41° 262° (W) 07:29:27 437.345
Cubesat XI-IV 04 Sep 07:39:32 07:44:51 70° 102° (ESE) 07:50:10 437.490
PRISM 04 Sep 07:46:36 07:50:37 59° 75° (ENE) 07:54:39 437.425
BRITE-PL 04 Sep 07:48:13 07:51:40 17° 90° (E) 07:55:25 437.365/2234.400
Cosmos 2491 04 Sep 07:51:03 07:55:19 16° 81° (E) 08:00:14 435.465 / 435.565
VERMONT LUNAR 04 Sep 07:54:54 07:57:47 51° 207° (SSW) 08:00:40 437.305
AO-7 04 Sep 07:56:27 08:00:03 13° 307° (NW) 08:03:05 29.400- 29.500
GOMX 1 04 Sep 07:59:47 08:01:24 12° 87° (E) 08:03:25 467.674
ISS 04 Sep 08:00:12 08:03:27 78° 317° (NW) 08:06:43 145.825
PHONESAT 2.4 04 Sep 08:11:39 08:14:48 34° 8° (N) 08:17:57 2401.200-2431.200
AIST 1 04 Sep 08:22:12 08:26:25 74° 96° (E) 08:30:40
CUTE-I 04 Sep 08:23:34 08:28:37 44° 288° (WNW) 08:33:39 437.470
STRAND 1 04 Sep 08:40:39 08:44:58 26° 265° (W) 08:49:11 437.568
SO-50 04 Sep 08:46:46 08:49:24 15° 44° (NE) 08:52:12 436.795
YUBILEINY 04 Sep 08:58:09 09:07:03 86° 83° (E) 09:15:50 435.215
CANX-2 04 Sep 09:00:46 09:03:29 17° 92° (E) 09:06:22 2200.000
HO-68 04 Sep 09:03:44 09:09:37 28° 95° (E) 09:15:40 435.675
SEEDS 04 Sep 09:15:19 09:18:05 18° 93° (E) 09:21:00 437.485
Cubesat XI-IV 04 Sep 09:21:51 09:24:26 13° 295° (WNW) 09:26:43 437.490
BRITE-PL 04 Sep 09:25:00 09:30:32 58° 285° (WNW) 09:36:05 437.365/2234.400
DOVE 4 04 Sep 09:29:48 09:35:03 59° 99° (E) 09:40:09 437.250
COMPASS 1 04 Sep 09:30:34 09:33:38 20° 94° (E) 09:36:48 437.405
GOMX 1 04 Sep 09:34:38 09:40:09 76° 284° (WNW) 09:45:35 467.674
AAUSAT CUBESAT 2 04 Sep 09:37:22 09:40:25 20° 94° (E) 09:43:34 437.432
ISS 04 Sep 09:39:11 09:40:21 11° 335° (NNW) 09:41:26 145.825
Cosmos 2491 04 Sep 09:42:31 09:51:14 86° 277° (W) 10:00:00 435.465 / 435.565
CINEMA 3 04 Sep 09:47:52 09:52:25 36° 96° (E) 09:56:48 145.822/145.860
DANDE 04 Sep 09:49:07 09:50:53 11° 61° (ENE) 09:53:27 436.750
PHONESAT 2.4 04 Sep 09:49:29 09:52:53 85° 204° (SSW) 09:56:17 2401.200-2431.200
TIGRISAT 04 Sep 10:10:24 10:13:09 16° 68° (ENE) 10:16:07 435.000
Cosmos 2504 04 Sep 10:14:23 10:21:48 35° 73° (ENE) 10:28:55 435.465 / 435.565
CUTE 1.7 + AOD 2 04 Sep 10:20:49 10:24:56 53° 284° (WNW) 10:28:59 437.475
SO-50 04 Sep 10:25:39 10:30:33 72° 243° (WSW) 10:35:17 436.795
ANTELSAT 04 Sep 10:27:58 10:31:47 26° 71° (ENE) 10:35:44 437.575/2403.000
CUSAT 1 04 Sep 10:32:02 10:39:15 36° 72° (ENE) 10:46:35 437.405
ZACube-1 04 Sep 10:32:48 10:36:26 25° 94° (E) 10:40:05 437.345
CANX-2 04 Sep 10:35:46 10:39:30 31° 287° (WNW) 10:43:11 2200.000
FUNcube-1 04 Sep 10:36:19 10:40:01 27° 95° (E) 10:43:44 145.935
PCSat 04 Sep 10:37:03 10:41:54 33° 56° (NE) 10:46:47 145.827
QB50P1 04 Sep 10:41:55 10:42:51 11° 67° (ENE) 10:44:01 145.935-145.965
HUMSAT D 04 Sep 10:47:12 10:48:50 12° 90° (E) 10:50:42 437.325/437.525
UWE-3 04 Sep 10:47:55 10:52:21 53° 99° (E) 10:56:39 435.000/436.395/437.385
CUBEBUG 2 04 Sep 10:49:03 10:53:41 74° 102° (ESE) 10:58:09 437.445
SEEDS 04 Sep 10:50:17 10:53:57 30° 287° (WNW) 10:57:33 437.485
HO-68 04 Sep 10:50:43 10:57:36 49° 291° (WNW) 11:04:24 435.675
YUBILEINY 04 Sep 10:57:47 11:02:54 16° 279° (W) 11:07:22 435.215
AUBIESAT-1 04 Sep 11:01:27 11:06:04 54° 70° (ENE) 11:10:36 437.475
COMPASS 1 04 Sep 11:05:49 11:09:17 25° 288° (WNW) 11:12:40 437.405
DELFI C3 04 Sep 11:08:18 11:12:16 70° 101° (E) 11:16:13 145.870
DOVE 4 04 Sep 11:09:06 11:12:18 16° 293° (WNW) 11:15:14 437.250
M-CUBED/EXP-1 PRIME 04 Sep 11:10:26 11:15:14 82° 71° (ENE) 11:19:58 437.505
AAUSAT CUBESAT 2 04 Sep 11:12:33 11:15:59 25° 288° (WNW) 11:19:21 437.432
DX 1 04 Sep 11:16:38 11:19:08 15° 92° (E) 11:21:50 434.975-435.025
Oscar 11 04 Sep 11:16:38 11:20:53 57° 285° (WNW) 11:25:04 145.826/435.025
UNISAT 6 04 Sep 11:17:52 11:22:33 88° 258° (WSW) 11:27:17 437.425
50 SAT 04 Sep 11:21:41 11:22:40 11° 91° (E) 11:23:53 437.505
UKube-1 04 Sep 11:22:55 11:25:31 16° 93° (E) 11:28:18 .
CINEMA 3 04 Sep 11:25:37 11:29:20 21° 291° (WNW) 11:32:50 145.822/145.860
DANDE 04 Sep 11:27:34 11:35:33 63° 78° (ENE) 11:43:59 436.750
PHONESAT 2.4 04 Sep 11:28:28 11:30:26 14° 217° (SW) 11:32:19 2401.200-2431.200
BUGSAT 1 04 Sep 11:30:58 11:34:09 23° 71° (ENE) 11:37:27 437.445
DUCHIFAT 1 04 Sep 11:39:46 11:43:51 51° 75° (ENE) 11:48:00 145.980
POLYITAN 1 04 Sep 11:41:49 11:46:01 58° 75° (ENE) 11:50:15 437.675
POPSAT HIP 1 04 Sep 11:42:50 11:47:00 58° 75° (ENE) 11:51:14 437.405
CUBEBUG 1 04 Sep 11:43:53 11:45:16 12° 90° (E) 11:46:57 437.445
Cosmos 2491 04 Sep 11:44:54 11:49:39 15° 298° (WNW) 11:53:45 435.465 / 435.565
TIGRISAT 04 Sep 11:45:03 11:49:33 45° 262° (W) 11:54:04 435.000
AISAT 04 Sep 11:53:36 11:57:25 27° 96° (E) 12:01:15 437.250
ESTCUBE 1 04 Sep 11:55:15 11:58:34 21° 94° (E) 12:02:01 437.505/2401.250
NANOSAT C BR1 04 Sep 11:58:36 12:02:50 90° 256° (WSW) 12:07:07 145.865
QB50P2 04 Sep 12:00:46 12:05:02 80° 259° (W) 12:09:20 145.880/145.840
ANTELSAT 04 Sep 12:04:28 12:08:28 27° 265° (W) 12:12:27 437.575/2403.000
Cosmos 2504 04 Sep 12:06:25 12:14:07 42° 272° (W) 12:21:13 435.465 / 435.565
ZACube-1 04 Sep 12:09:08 12:12:42 23° 289° (WNW) 12:16:06 437.345
FUNcube-1 04 Sep 12:12:45 12:16:13 22° 290° (WNW) 12:19:31 145.935
QB50P1 04 Sep 12:14:05 12:18:15 56° 260° (W) 12:22:28 145.935-145.965
CUSAT 1 04 Sep 12:14:13 12:21:59 48° 268° (W) 12:29:30 437.405
VELOX 1 04 Sep 12:20:11 12:24:34 54° 100° (E) 12:28:57 145.980
PCSat 04 Sep 12:20:34 12:25:14 29° 251° (WSW) 12:29:46 145.827
HUMSAT D 04 Sep 12:20:51 12:24:52 42° 286° (WNW) 12:28:46 437.325/437.525
UWE-3 04 Sep 12:26:25 12:28:24 12° 293° (WNW) 12:30:09 435.000/436.395/437.385
JUGNU 04 Sep 12:34:18 12:37:55 17° 173° (S) 12:41:34 437.505
AUBIESAT-1 04 Sep 12:38:31 12:41:01 14° 264° (W) 12:43:15 437.475
DX 1 04 Sep 12:51:29 12:55:34 38° 287° (WNW) 12:59:38 434.975-435.025
50 SAT 04 Sep 12:53:49 12:57:26 39° 286° (WNW) 13:00:59 437.505
UKube-1 04 Sep 12:57:48 13:01:48 36° 287° (WNW) 13:05:45 .
SPROUT 04 Sep 12:57:59 13:01:32 25° 95° (E) 13:05:09 437.525
BUGSAT 1 04 Sep 13:06:17 13:09:32 22° 265° (W) 13:12:46 437.445
DANDE 04 Sep 13:11:39 13:18:21 27° 271° (W) 13:24:57 436.750
CUBEBUG 1 04 Sep 13:17:40 13:21:59 52° 285° (WNW) 13:26:17 437.445
DUCHIFAT 1 04 Sep 13:18:51 13:20:01 11° 270° (W) 13:20:53 145.980
AISAT 04 Sep 13:30:16 13:33:52 23° 290° (WNW) 13:37:20 437.250
ESTCUBE 1 04 Sep 13:31:31 13:35:29 30° 288° (WNW) 13:39:23 437.505/2401.250
Gurwin Techsat 1B 04 Sep 13:37:36 13:39:26 12° 64° (ENE) 13:41:34 435.225
TISAT 1 04 Sep 13:45:34 13:49:43 49° 99° (E) 13:53:52 437.305
GONETS M04 04 Sep 13:46:12 13:54:19 41° 75° (ENE) 14:02:34
SRMSAT 04 Sep 13:52:14 13:55:21 15° 170° (S) 13:58:31 437.500
VELOX 1 04 Sep 13:58:42 14:00:42 12° 293° (WNW) 14:02:26 145.980
Oscar 19 04 Sep 14:00:03 14:05:10 70° 75° (ENE) 14:10:22 437.125/150
BEESAT 3 04 Sep 14:09:55 14:13:46 44° 115° (ESE) 14:17:40 437.485
ITUPSAT 1 04 Sep 14:21:28 14:24:40 18° 93° (E) 14:28:01 437.325
JUGNU 04 Sep 14:22:22 14:26:15 18° 183° (S) 14:30:06 437.505
BEESAT 2 04 Sep 14:27:59 14:31:56 53° 116° (ESE) 14:35:57 435.950
ISS 04 Sep 14:30:40 14:33:27 26° 34° (NE) 14:36:15 145.825
SPROUT 04 Sep 14:34:01 14:37:31 23° 289° (WNW) 14:40:54 437.525
JAS-2 04 Sep 14:46:14 14:53:06 37° 68° (ENE) 15:00:10 435.910
BEESAT 04 Sep 14:51:02 14:55:30 40° 98° (E) 14:59:58 436.000
AO-7 04 Sep 15:05:05 15:11:17 25° 60° (ENE) 15:17:44 29.400- 29.500
ITAMSAT 1 04 Sep 15:07:51 15:13:00 78° 74° (ENE) 15:18:11 435.822/435.867
Gurwin Techsat 1B 04 Sep 15:13:32 15:18:50 76° 257° (WSW) 15:24:11 435.225
SWISSCUBE 04 Sep 15:17:23 15:22:10 87° 106° (ESE) 15:26:56 437.505
TISAT 1 04 Sep 15:23:14 15:25:05 12° 293° (WNW) 15:26:42 437.305
AIST 2 04 Sep 15:32:09 15:36:14 49° 116° (ESE) 15:40:21 435.215
SRMSAT 04 Sep 15:39:54 15:43:49 18° 180° (S) 15:47:43 437.500
Cosmos 2499 04 Sep 15:40:58 15:49:20 58° 79° (ENE) 15:57:05 435.465 / 435.565
GONETS M04 04 Sep 15:43:08 15:51:08 39° 272° (W) 15:58:58
Oscar 19 04 Sep 15:43:30 15:45:08 11° 271° (W) 15:46:22 437.125/150
BEESAT 3 04 Sep 15:49:28 15:51:57 15° 312° (NW) 15:54:19 437.485
RS-15 04 Sep 15:56:40 16:07:20 67° 114° (ESE) 16:18:27 29.354- 29.394
ITUPSAT 1 04 Sep 15:58:18 16:02:43 38° 288° (WNW) 16:07:05 437.325
STARS 04 Sep 16:04:26 16:07:45 21° 94° (E) 16:11:10 437.465
ISS 04 Sep 16:07:06 16:09:49 24° 229° (SW) 16:12:29 145.825
BEESAT 2 04 Sep 16:08:11 16:10:20 13° 313° (NW) 16:12:20 435.950
JUGNU 04 Sep 16:12:11 16:14:34 12° 193° (SSW) 16:16:50 437.505
BEESAT 04 Sep 16:29:46 16:33:04 18° 292° (WNW) 16:36:12 436.000
JAS-2 04 Sep 16:30:41 16:37:57 43° 264° (W) 16:45:19 435.910
KKS-1 04 Sep 16:32:39 16:37:09 82° 102° (ESE) 16:41:38 437.445
HORYU 2 04 Sep 16:39:21 16:43:51 82° 77° (ENE) 16:48:23 437.375
AO-7 04 Sep 16:55:09 17:03:28 69° 256° (WSW) 17:11:47 29.400- 29.500
AIST 2 04 Sep 17:12:33 17:15:07 15° 312° (NW) 17:17:33 435.215
MOZHAYETS 4 04 Sep 17:15:12 17:19:15 32° 96° (E) 17:23:20
SRMSAT 04 Sep 17:29:08 17:32:17 15° 190° (S) 17:35:21 437.500
Cosmos 2499 04 Sep 17:35:20 17:41:53 25° 276° (W) 17:47:47 435.465 / 435.565
STARS 04 Sep 17:40:21 17:44:13 29° 289° (WNW) 17:47:59 437.465
O/OREOS (USA 219) 04 Sep 17:41:16 17:42:59 12° 100° (E) 17:44:57 437.305
CUTE-I 04 Sep 18:03:21 18:07:26 24° 68° (ENE) 18:11:41 437.470
RS-15 04 Sep 18:10:49 18:20:38 35° 317° (NW) 18:30:37 29.354- 29.394
AIST 1 04 Sep 18:34:20 18:36:21 13° 71° (ENE) 18:38:36
